TimeEDT,TemperatureF,Dew PointF,Humidity,Sea Level PressureIn,VisibilityMPH,Wind Direction,Wind SpeedMPH,Gust SpeedMPH,PrecipitationIn,Events,Conditions,WindDirDegrees,DateUTC
12:53 AM,72.0,64.9,78,30.00,10.0,West,9.2,-,N/A,,Clear,260,2013-05-07 04:53:00
1:53 AM,71.1,63.0,75,29.99,10.0,WNW,6.9,-,N/A,,Clear,300,2013-05-07 05:53:00
2:53 AM,69.1,62.1,78,29.98,10.0,WNW,5.8,-,N/A,,Clear,300,2013-05-07 06:53:00
3:53 AM,66.9,60.1,79,29.99,10.0,NW,4.6,-,N/A,,Partly Cloudy,310,2013-05-07 07:53:00
4:53 AM,66.0,59.0,78,29.99,10.0,NW,3.5,-,N/A,,Partly Cloudy,310,2013-05-07 08:53:00
5:53 AM,66.0,59.0,78,29.99,10.0,NW,6.9,-,N/A,,Partly Cloudy,310,2013-05-07 09:53:00
6:53 AM,66.0,60.1,81,30.01,10.0,NW,6.9,-,N/A,,Clear,310,2013-05-07 10:53:00
7:53 AM,68.0,60.1,76,30.04,10.0,North,9.2,-,N/A,,Clear,350,2013-05-07 11:53:00
8:53 AM,71.1,60.1,68,30.04,10.0,NNW,5.8,-,N/A,,Clear,330,2013-05-07 12:53:00
9:53 AM,73.9,60.1,62,30.06,10.0,NW,4.6,-,N/A,,Clear,310,2013-05-07 13:53:00
10:53 AM,75.0,60.1,60,30.06,10.0,NW,8.1,-,N/A,,Partly Cloudy,310,2013-05-07 14:53:00
11:53 AM,79.0,59.0,50,30.05,10.0,WNW,8.1,-,N/A,,Partly Cloudy,290,2013-05-07 15:53:00
12:53 PM,80.1,57.9,47,30.04,10.0,West,9.2,-,N/A,,Partly Cloudy,280,2013-05-07 16:53:00
1:53 PM,81.0,57.9,45,30.03,10.0,West,10.4,19.6,N/A,,Mostly Cloudy,270,2013-05-07 17:53:00
2:53 PM,81.0,59.0,47,30.01,10.0,Variable,3.5,-,N/A,,Scattered Clouds,0,2013-05-07 18:53:00
3:53 PM,77.0,64.9,66,29.99,10.0,SE,11.5,-,N/A,,Mostly Cloudy,140,2013-05-07 19:53:00
4:53 PM,77.0,64.9,66,29.98,10.0,ESE,12.7,-,N/A,,Scattered Clouds,120,2013-05-07 20:53:00
5:53 PM,77.0,64.9,66,29.99,10.0,SE,12.7,-,N/A,,Scattered Clouds,130,2013-05-07 21:53:00
6:53 PM,78.1,66.9,68,29.98,10.0,SE,10.4,-,N/A,,Scattered Clouds,140,2013-05-07 22:53:00
7:53 PM,78.1,66.9,68,30.00,10.0,ESE,3.5,-,N/A,,Mostly Cloudy,120,2013-05-07 23:53:00
8:53 PM,77.0,55.0,47,30.02,10.0,NW,9.2,-,N/A,,Partly Cloudy,310,2013-05-08 00:53:00
9:53 PM,75.9,55.9,50,30.05,10.0,WNW,8.1,-,N/A,,Partly Cloudy,290,2013-05-08 01:53:00
10:53 PM,73.9,57.0,55,30.07,10.0,West,9.2,-,N/A,,Clear,280,2013-05-08 02:53:00
11:53 PM,72.0,57.9,61,30.07,10.0,West,5.8,-,N/A,,Clear,270,2013-05-08 03:53:00